Weather in Tabora

Tanzania     5°01′50″S   32°49′11″E
temp.,
°C
wind,
m/s
gust,
m/s
humid.,
%
clouds,
%
prec.,
mm/h
press.,
hPa
HPBL,
m
8 may, sat
sat800:00+19e2389100 0.8 101371
03:00+19e1190100 0.8 101227
06:00+18ese2693100 0.1 1014195
09:00+18se1692100 0.1 1016266
12:00+24ese3466100 0.0 10131078
15:00+26se1258100 0.1 10091547
18:00+21s2584100 0.9 1010112
21:00+20s128699 2.2 101319
9 may, sun
sun900:00+20sse119096 0.6 101316
03:00+19wnw1193100 1.3 101212
06:00+18w1196100 1.9 101320
09:00+20ssw2390100 4.7 1015207
12:00+22se228092 4.1 1014528
15:00+23e017699 8.4 1011678
18:00+21n0089100 4.5 101220
21:00+19nw1193100 8.5 101514
10 may, mon
mon1000:00+18nw2496100 3.9 1015128
03:00+18w2698100 6.2 1014303
06:00+18w3798100 4.1 1015471
09:00+17w3798100 17.0 1017393
12:00+18w3593100 2.5 1017373
15:00+20wsw2486100 2.6 1014536
18:00+21w138638 0.0 1013162
21:00+18wnw119798 1.1 101613
11 may, tue
tue1100:00+18nw119799 0.6 101616
03:00+17sw1298100 1.4 101576
06:00+17ssw129790 0.2 101677
09:00+19s128681 0.3 1018290
12:00+21se4481100 2.1 1017936
15:00+23se3466100 3.8 10141319
18:00+21se128012 0.5 101553
21:00+18e118419 0.6 101711
12 may, wed
wed1200:00+17nnw0087100 0.0 101711
03:00+16se118716 0.0 101611
06:00+15sse119110 0.0 101711
09:00+19se1280100 0.0 1018244
12:00+23se226519 0.0 1017901
15:00+25s125547 0.0 10131621
18:00+21s227597 0.0 101339
21:00+20sw1174100 0.0 101511